[[{"header":{"parameterUnit":"m.s-1","parameterCategory":1,"la1":30.2991,"la2":30.254,"lo1":-89.0895,"lo2":-89.0444,"dy":0.0017,"dx":0.0017,"nx":28,"ny":28,"refTime":"2025-01-17T09:00:00:Z","depth":0,"parameterNumber":2,"parameterNumberName":"U-component_of_WINDS"},"data":[0,0,0,0,0,0,0,0,0,0,0,0,0,0,0,0,0,0,0,0,0,0,0,0,0,0,0,0,0,0,0,0,0,0,0,0,0,0,0,0,0,0,0,0,0,0,0,0,0,0,0,0,0,0,0,0,0,0,-0.2155,-0.2156,0,-0.2168,-0.2169,-0.2169,-0.2144,-0.2143,-0.2142,-0.2141,-0.2156,-0.2157,-0.2158,0,0,0,0,0,0,0,0,0,0,0,0,0,-0.211,-0.2111,-0.2155,-0.2156,-0.2156,-0.2168,-0.2169,-0.2169,-0.2144,-0.2143,-0.2142,-0.2141,-0.2156,-0.2157,-0.2159,0,0,0,0,0,0,0,0,0,0,0,0,0,-0.2127,-0.2111,-0.2155,-0.2145,-0.2144,-0.2168,-0.2169,-0.2169,-0.2144,-0.2143,-0.2141,-0.214,-0.2155,-0.2157,-0.2159,-0.2195,0,0,-0.2164,-0.2165,0,0,0,0,0,0,0,0,-0.2126,-0.2129,-0.2146,-0.2146,-0.2145,-0.2153,-0.2158,-0.2178,-0.2144,-0.2144,-0.2141,-0.214,-0.2156,-0.2158,-0.2163,-0.2195,-0.2196,-0.2164,-0.2165,-0.2166,-0.2167,0,0,0,0,0,0,0,-0.2125,-0.2128,-0.2161,-0.2146,-0.2146,-0.214,-0.2141,-0.2162,-0.2157,-0.2144,-0.2142,-0.2144,-0.2156,-0.2161,-0.2163,-0.2196,-0.2164,-0.2166,-0.2167,-0.2168,-0.2259,-0.226,0,0,0,0,0,0,-0.2125,-0.2127,-0.216,-0.2161,-0.2132,-0.2142,-0.2143,-0.2152,-0.2157,-0.2156,-0.2145,-0.2143,-0.2159,-0.2161,-0.2164,-0.2206,-0.2166,-0.2168,-0.2169,-0.2257,-0.2259,-0.2261,0,0,0,0,0,0,-0.2124,-0.2128,-0.216,-0.2144,-0.2147,-0.2144,-0.2154,-0.2153,-0.2158,-0.2158,-0.2157,-0.2152,-0.2158,-0.2161,-0.2187,-0.2206,-0.2169,-0.217,-0.2256,-0.2258,-0.226,-0.2292,0,0,0,0,0,0,-0.2123,-0.2128,-0.2142,-0.2144,-0.2148,-0.2183,-0.2155,-0.2154,-0.2161,-0.2158,-0.2164,-0.2163,-0.2157,-0.2185,-0.2189,-0.2208,-0.2172,-0.2254,-0.2257,-0.2259,-0.2289,-0.2294,-0.2299,0,0,0,0,0,-0.2122,-0.215,-0.2142,-0.2146,-0.2165,-0.2184,-0.2186,-0.2178,-0.2163,-0.2177,-0.2176,-0.2163,-0.2203,-0.2187,-0.2192,-0.2212,-0.2253,-0.2256,-0.2259,-0.2286,-0.2293,-0.2299,0,0,0,0,0,0,-0.2151,-0.215,-0.2142,-0.2172,-0.2178,-0.2179,-0.2196,-0.2186,-0.2197,-0.2194,-0.2184,-0.2185,-0.2213,-0.2215,-0.2197,-0.2247,-0.2226,-0.223,-0.2245,-0.2252,-0.2257,-0.2256,-0.2173,0,0,0,0,0,-0.216,-0.2175,-0.2175,-0.2202,-0.2205,-0.22,-0.2208,-0.2202,-0.2208,-0.221,-0.2211,-0.2218,-0.2232,-0.2242,-0.2255,-0.2289,-0.229,-0.2305,-0.231,-0.2314,-0.2318,-0.2336,-0.2343,-0.2271,-0.2271,-0.2271,0,0,-0.2181,-0.2183,-0.2193,-0.2207,-0.2211,-0.2227,-0.2203,-0.2221,-0.2233,-0.2213,-0.2237,-0.2239,-0.2246,-0.2276,-0.2289,-0.2278,-0.2338,-0.2318,-0.2322,-0.2323,-0.234,-0.2347,-0.2353,-0.2273,-0.2272,-0.2272,0,0,-0.2227,-0.223,-0.2253,-0.2257,-0.2263,-0.2259,-0.2265,-0.2268,-0.2268,-0.2292,-0.2277,-0.2292,-0.2316,-0.2322,-0.2328,-0.2375,-0.2364,-0.238,-0.2408,-0.2425,-0.2431,-0.2436,-0.2453,-0.246,-0.2384,-0.2384,-0.2384,0,-0.2253,-0.2276,-0.2266,-0.2285,-0.2292,-0.2274,-0.2297,-0.2302,-0.2312,-0.2317,-0.2305,-0.2335,-0.2339,-0.237,-0.2381,-0.2387,-0.2393,-0.238,-0.2431,-0.2436,-0.244,-0.2457,-0.2463,-0.2386,-0.2385,-0.2385,-0.2385,0,-0.2307,-0.2323,-0.2341,-0.235,-0.2359,-0.238,-0.2374,-0.2384,-0.2376,-0.2374,-0.2399,-0.2403,-0.2416,-0.2423,-0.2416,-0.2453,-0.2446,-0.2432,-0.2411,-0.2449,-0.2465,-0.2471,-0.2388,-0.2388,-0.2387,-0.2387,0,0,-0.2372,-0.2375,-0.2382,-0.2386,-0.2391,-0.2404,-0.2424,-0.2437,-0.2446,-0.2453,-0.247,-0.2491,-0.2478,-0.2485,-0.2479,-0.2494,-0.2532,-0.2479,-0.2479,-0.2489,-0.2573,-0.2584,-0.2591,-0.2524,-0.2525,-0.2526,-0.2573,0,-0.2418,-0.2452,-0.2444,-0.2478,-0.2493,-0.2476,-0.2494,-0.2499,-0.2498,-0.2511,-0.2509,-0.2524,-0.2506,-0.251,-0.2525,-0.2524,-0.2549,-0.2521,-0.254,-0.2541,-0.254,-0.2599,-0.261,-0.2654,-0.2579,-0.258,-0.258,0,-0.2476,-0.2485,-0.2521,-0.2523,-0.2529,-0.2545,-0.2556,-0.2568,-0.2574,-0.2572,-0.2579,-0.2569,-0.259,-0.2567,-0.2595,-0.2577,-0.2584,-0.2585,-0.2586,-0.2588,-0.2563,-0.2603,-0.2668,-0.2674,-0.2589,-0.2589,-0.2588,0,-0.2521,-0.2542,-0.2566,-0.257,-0.2573,-0.2585,-0.2587,-0.2591,-0.2599,-0.2608,-0.2613,-0.2625,-0.2632,-0.2641,-0.2635,-0.2619,-0.2665,-0.2641,-0.2664,-0.2664,-0.2674,-0.2674,-0.2742,-0.2679,-0.2678,-0.2678,-0.2678,0,-0.2573,-0.2596,-0.2586,-0.2601,-0.2626,-0.2616,-0.2641,-0.2641,-0.2645,-0.266,-0.2646,-0.266,-0.2651,-0.2664,-0.266,-0.2684,-0.2687,-0.2686,-0.2684,-0.2687,-0.2688,-0.2693,-0.269,-0.268,-0.268,-0.2679,-0.2679,0,-0.2628,-0.2622,-0.2647,-0.2648,-0.2648,-0.2667,-0.2667,-0.2681,-0.2679,-0.2698,-0.2701,-0.2697,-0.2713,-0.2707,-0.2724,-0.272,-0.2751,-0.2746,-0.2749,-0.2748,-0.2771,-0.2769,-0.2844,-0.2854,-0.2784,-0.2785,-0.2786,0,-0.2662,-0.2679,-0.2681,-0.2689,-0.2692,-0.2707,-0.2714,-0.2705,-0.2714,-0.2721,-0.2734,-0.2748,-0.2759,-0.2784,-0.2783,-0.2796,-0.279,-0.2816,-0.2792,-0.2795,-0.2791,-0.279,-0.2792,-0.2821,-0.2822,-0.2822,-0.2823,0,-0.2723,-0.2719,-0.2731,-0.2741,-0.2751,-0.2759,-0.2766,-0.2774,-0.2765,-0.2776,-0.2791,-0.2799,-0.2815,-0.2829,-0.284,-0.2843,-0.2832,-0.283,-0.2836,-0.284,-0.2841,-0.2841,-0.2763,-0.2829,-0.2828,-0.2828,-0.2827,-0.2827,-0.2768,-0.2783,-0.2786,-0.28,-0.2804,-0.281,-0.2823,-0.2822,-0.2834,-0.2847,-0.284,-0.2858,-0.2863,-0.2877,-0.288,-0.2894,-0.2884,-0.2893,-0.2895,-0.2897,-0.29,-0.2838,-0.2896,-0.2896,-0.2896,-0.2896,-0.2896,0,-0.2829,-0.2831,-0.2843,-0.2853,-0.2863,-0.2851,-0.2858,-0.2868,-0.2883,-0.2888,-0.2899,-0.2916,-0.293,-0.2929,-0.2942,-0.2953,-0.2948,-0.2957,-0.2956,-0.2957,-0.2908,-0.2902,-0.296,-0.296,-0.296,-0.296,-0.296,-0.296,-0.2862,-0.2886,-0.2882,-0.2907,-0.2909,-0.2925,-0.293,-0.2937,-0.2941,-0.2961,-0.2971,-0.2971,-0.2974,-0.2986,-0.2998,-0.2998,-0.3003,-0.3014,-0.3011,-0.2966,-0.296,-0.2954,-0.2948,-0.3015,-0.3015,-0.3058,-0.3059,-0.3059]},{"header":{"parameterUnit":"m.s-1","parameterCategory":1,"la1":30.2991,"la2":30.254,"lo1":-89.0895,"lo2":-89.0444,"dy":0.0017,"dx":0.0017,"nx":28,"ny":28,"refTime":"2025-01-17T09:00:00:Z","depth":0,"parameterNumber":3,"parameterNumberName":"V-component_of_WINDS"},"data":[0,0,0,0,0,0,0,0,0,0,0,0,0,0,0,0,0,0,0,0,0,0,0,0,0,0,0,0,0,0,0,0,0,0,0,0,0,0,0,0,0,0,0,0,0,0,0,0,0,0,0,0,0,0,0,0,0,0,-1.5462,-1.5463,0,-1.5556,-1.5557,-1.5558,-1.5567,-1.5566,-1.5565,-1.5564,-1.5662,-1.5666,-1.5669,0,0,0,0,0,0,0,0,0,0,0,0,0,-1.5291,-1.5294,-1.5461,-1.5463,-1.5464,-1.5556,-1.5557,-1.5558,-1.5567,-1.5566,-1.5565,-1.5564,-1.5661,-1.5665,-1.567,0,0,0,0,0,0,0,0,0,0,0,0,0,-1.5373,-1.5295,-1.5461,-1.5479,-1.5482,-1.5555,-1.5557,-1.5559,-1.5567,-1.5566,-1.5564,-1.5563,-1.566,-1.5665,-1.567,-1.5733,0,0,-1.5687,-1.5689,0,0,0,0,0,0,0,0,-1.5368,-1.5379,-1.5475,-1.5478,-1.5481,-1.5548,-1.5533,-1.5617,-1.5568,-1.5535,-1.5564,-1.5562,-1.5626,-1.5634,-1.5655,-1.5738,-1.5742,-1.5687,-1.569,-1.5693,-1.5694,0,0,0,0,0,0,0,-1.5363,-1.5375,-1.5499,-1.5477,-1.548,-1.5483,-1.5493,-1.5549,-1.5588,-1.5538,-1.5539,-1.5549,-1.5627,-1.565,-1.5657,-1.5743,-1.5687,-1.5692,-1.5695,-1.5697,-1.5883,-1.5884,0,0,0,0,0,0,-1.5353,-1.537,-1.5496,-1.5502,-1.542,-1.5487,-1.5499,-1.5528,-1.5587,-1.5595,-1.5551,-1.555,-1.5641,-1.5651,-1.5661,-1.5738,-1.5692,-1.5697,-1.5701,-1.5881,-1.5883,-1.5885,0,0,0,0,0,0,-1.535,-1.5364,-1.5492,-1.5436,-1.5453,-1.5492,-1.5525,-1.5531,-1.5553,-1.5597,-1.5604,-1.5567,-1.564,-1.5653,-1.5715,-1.5742,-1.57,-1.5705,-1.5879,-1.5881,-1.5884,-1.5894,0,0,0,0,0,0,-1.5345,-1.5363,-1.5387,-1.5437,-1.5456,-1.5544,-1.5527,-1.5534,-1.5562,-1.5562,-1.5614,-1.5621,-1.564,-1.5707,-1.572,-1.5748,-1.5709,-1.5877,-1.588,-1.5883,-1.5891,-1.5896,-1.5901,0,0,0,0,0,-1.5339,-1.5386,-1.5388,-1.5403,-1.5486,-1.5546,-1.5557,-1.5578,-1.5564,-1.5589,-1.5617,-1.5619,-1.5736,-1.5713,-1.5728,-1.5758,-1.5875,-1.5879,-1.5883,-1.5889,-1.5895,-1.59,0,0,0,0,0,0,-1.534,-1.5393,-1.5396,-1.5461,-1.5499,-1.5547,-1.5579,-1.5584,-1.5626,-1.5624,-1.5649,-1.5661,-1.5721,-1.5746,-1.5719,-1.5822,-1.5804,-1.5812,-1.5804,-1.581,-1.5815,-1.5808,-1.5713,0,0,0,0,0,-1.5347,-1.539,-1.5435,-1.5488,-1.5507,-1.554,-1.5566,-1.5579,-1.5619,-1.5636,-1.5668,-1.5708,-1.5753,-1.5783,-1.5828,-1.5894,-1.5906,-1.5923,-1.5927,-1.5931,-1.5937,-1.5974,-1.5982,-1.5898,-1.5898,-1.5898,0,0,-1.5364,-1.5398,-1.5424,-1.5489,-1.552,-1.5565,-1.5553,-1.5601,-1.5635,-1.5643,-1.5703,-1.5728,-1.5774,-1.5839,-1.5869,-1.5861,-1.5963,-1.5936,-1.5939,-1.5943,-1.5979,-1.5987,-1.5994,-1.59,-1.59,-1.5899,0,0,-1.5417,-1.5447,-1.5495,-1.5526,-1.5572,-1.5593,-1.5604,-1.5652,-1.5669,-1.573,-1.5737,-1.5778,-1.5856,-1.5888,-1.5915,-1.5979,-1.5983,-1.5993,-1.6018,-1.6055,-1.6061,-1.6067,-1.6091,-1.6099,-1.5999,-1.5999,-1.5999,0,-1.5432,-1.5499,-1.5519,-1.5567,-1.5595,-1.5604,-1.5653,-1.5682,-1.5741,-1.5761,-1.5751,-1.5849,-1.5881,-1.5953,-1.5968,-1.599,-1.6004,-1.5988,-1.6058,-1.6065,-1.6071,-1.6093,-1.6102,-1.6,-1.6,-1.6,-1.6,0,-1.5515,-1.5562,-1.5595,-1.565,-1.5683,-1.5731,-1.5758,-1.5789,-1.5798,-1.5821,-1.5883,-1.592,-1.5973,-1.5991,-1.6001,-1.6065,-1.6058,-1.6053,-1.6036,-1.6079,-1.6101,-1.611,-1.6001,-1.6001,-1.6001,-1.6,0,0,-1.5573,-1.5638,-1.565,-1.5675,-1.5726,-1.5763,-1.5811,-1.5862,-1.5888,-1.5928,-1.5969,-1.6035,-1.6031,-1.6061,-1.6075,-1.6106,-1.6155,-1.6097,-1.6099,-1.6107,-1.6228,-1.6232,-1.6242,-1.6158,-1.6159,-1.6161,-1.6224,0,-1.5632,-1.5718,-1.5737,-1.5811,-1.5854,-1.5863,-1.5905,-1.5941,-1.5963,-1.6004,-1.6028,-1.6075,-1.6065,-1.6083,-1.6115,-1.6143,-1.618,-1.6138,-1.6197,-1.6199,-1.6186,-1.6253,-1.6257,-1.6315,-1.6233,-1.6234,-1.6235,0,-1.5713,-1.5754,-1.5832,-1.5877,-1.5896,-1.5934,-1.5981,-1.602,-1.6061,-1.6075,-1.6108,-1.6119,-1.617,-1.6149,-1.6221,-1.6192,-1.6217,-1.6234,-1.6237,-1.6244,-1.622,-1.6262,-1.6334,-1.6343,-1.6249,-1.6248,-1.6247,0,-1.5747,-1.5822,-1.5878,-1.59,-1.5954,-1.598,-1.6004,-1.6044,-1.6073,-1.6115,-1.6134,-1.6181,-1.6207,-1.6244,-1.6267,-1.625,-1.6337,-1.6318,-1.635,-1.6349,-1.6368,-1.6367,-1.6446,-1.6384,-1.6383,-1.6383,-1.6383,0,-1.5812,-1.5859,-1.5894,-1.5929,-1.5983,-1.6004,-1.6057,-1.6081,-1.6116,-1.6157,-1.6167,-1.6204,-1.6232,-1.6274,-1.6292,-1.6348,-1.636,-1.6373,-1.6377,-1.6373,-1.6371,-1.639,-1.6387,-1.6386,-1.6385,-1.6385,-1.6384,0,-1.586,-1.5885,-1.5947,-1.5993,-1.6005,-1.6043,-1.6083,-1.6117,-1.6139,-1.6189,-1.6202,-1.6237,-1.6286,-1.6313,-1.6375,-1.6387,-1.645,-1.6452,-1.6436,-1.6438,-1.6469,-1.6466,-1.6564,-1.6578,-1.6505,-1.6505,-1.6506,0,-1.59,-1.5936,-1.5986,-1.6013,-1.6037,-1.6081,-1.611,-1.6133,-1.6163,-1.6213,-1.6241,-1.6291,-1.6332,-1.641,-1.6441,-1.6488,-1.6492,-1.6523,-1.6499,-1.6493,-1.6493,-1.6491,-1.6495,-1.6527,-1.6528,-1.6529,-1.6529,0,-1.5968,-1.5979,-1.602,-1.6066,-1.61,-1.6138,-1.6175,-1.6197,-1.6226,-1.6259,-1.6309,-1.6341,-1.6404,-1.6453,-1.6502,-1.6528,-1.6534,-1.6536,-1.6546,-1.6542,-1.6531,-1.6538,-1.6448,-1.6534,-1.6533,-1.6533,-1.6533,-1.6533,-1.6014,-1.6047,-1.6086,-1.6132,-1.6162,-1.6197,-1.6231,-1.6257,-1.6299,-1.6351,-1.6362,-1.6415,-1.6455,-1.6522,-1.6549,-1.6591,-1.6585,-1.6599,-1.6603,-1.6606,-1.6608,-1.6524,-1.66,-1.66,-1.66,-1.66,-1.66,0,-1.6083,-1.6109,-1.6151,-1.6202,-1.6238,-1.6239,-1.628,-1.631,-1.6357,-1.6393,-1.6433,-1.6491,-1.6538,-1.6573,-1.6622,-1.6649,-1.6653,-1.6661,-1.6659,-1.6665,-1.661,-1.6597,-1.6657,-1.6657,-1.6657,-1.6657,-1.6657,-1.6657,-1.6124,-1.6179,-1.6194,-1.6265,-1.6291,-1.6342,-1.6365,-1.6397,-1.6427,-1.649,-1.653,-1.6551,-1.6587,-1.6639,-1.6683,-1.6692,-1.6709,-1.6717,-1.6727,-1.6675,-1.6669,-1.6663,-1.6651,-1.6721,-1.6721,-1.6778,-1.6779,-1.6779]}]]